Regional Weather Roundup
Issued by NWS

Home | Current Version | Previous Version | Graphics & Text | Print | Product List | Glossary On
Versions: 1 2 3 4 5 6 7 8 9 10 11 12 13 14 15 16 17 18 19 20 21 22 23 24 25 26 27 28 29 30 31 32 33 34 35 36 37 38 39 40 41 42 43 44 45 46 47 48 49 50
000
ASUS43 KIND 241509
RWRIN

WEATHER ROUNDUP FOR INDIANA
NATIONAL WEATHER SERVICE INDIANAPOLIS IN
1000 AM EST WED DEC 24 2014

NOTE: "FAIR" INDICATES FEW OR NO CLOUDS BELOW 12,000 FEET WITH NO
SIGNIFICANT WEATHER AND/OR OBSTRUCTIONS TO VISIBILITY.

* - STATION DOES NOT REPORT WEATHER SUCH AS PRECIPITATION OR FOG.

+ - STATION NOT QUALITY CONTROLLED BY THE NATIONAL WEATHER SERVICE.
    USE DATA WITH CAUTION...ESPECIALLY DEWPOINT AND RELATIVE
    HUMIDITY OBSERVATIONS.

INZ001>003-010>013-019-020-241600-
NORTHWEST INDIANA

CITY           SKY/WX    TMP DP  RH WIND       PRES   REMARKS
KNOX *+        CLOUDY    40  36  86 N8        29.60F
LA PORTE +     RAIN      41  41 100 N6        29.62F
MICHIGAN CITY+ RAIN      37  37 100 CALM      29.64R
MONTICELLO +   LGT RAIN  40  39  97 N8        29.61S
RENSSELAER +   RAIN      41  41 100 CALM      29.62F
VALPARAISO     RAIN      39  37  92 NE5       29.62S FOG

$$

LMZ046-743>745-241600-
SOUTHERN LAKE MICHIGAN

STATION/POSITION TIME  TEMP WIND        PRES
                       AIR  DIR/SP/G
                 (UTC) (F)  (DEG/KT/KT) (MB)
MICHIGAN CITY    1500   39  130/  6/  8   N/A

$$

INZ004-005-014>016-021>024-241600-
NORTH CENTRAL INDIANA

CITY           SKY/WX    TMP DP  RH WIND       PRES   REMARKS
ELKHART        RAIN      39  37  93 NW6       29.60R
GOSHEN         LGT RAIN  41  39  93 NW9       29.56S FOG
LOGANSPORT +   RAIN      39  37  93 NW10      29.60R
PERU/GRISSOM   RAIN      41  41 100 NW12      29.57R FOG
ROCHESTER +    RAIN      41  41 100 NW10      29.59R
SOUTH BEND     LGT RAIN  40  37  89 N13       29.62R FOG
WARSAW +       LGT RAIN  39  39 100 NW7       29.56S

$$

INZ006>009-017-018-025>027-241600-
NORTHEAST INDIANA

CITY           SKY/WX    TMP DP  RH WIND       PRES   REMARKS
ANGOLA *+      CLOUDY    39  39 100 N5        29.52F
AUBURN +       CLOUDY    41  39  93 N5        29.52F
FORT WAYNE     DRIZZLE   42  40  92 NW5       29.53F FOG
HUNTINGTON +   RAIN      40  40 100 NW5       29.53S

$$

INZ028-029-035-036-043>045-051>053-241600-
WEST CENTRAL INDIANA

CITY           SKY/WX    TMP DP  RH WIND       PRES   REMARKS
CRAWFORDSVL +  LGT SNOW  37  36  93 N10G17    29.59
GREENCASTLE +  LGT RAIN  39  36  87 N13       29.57F
LAFAYETTE      LGT RAIN  39  38  96 N9        29.61S FOG
TERRE HAUTE    LGT RAIN  41  39  93 NW10      29.60S FOG

$$

INZ030>032-037>040-046>048-054>057-064-065-241600-
CENTRAL INDIANA

CITY           SKY/WX    TMP DP  RH WIND       PRES   REMARKS
CP ATTERBURY + DRIZZLE   41  41 100 MISG      29.54S
COLUMBUS       CLOUDY    41  41 100 NW9       29.53S FOG
FRANKFORT +    RAIN     N/A N/A N/A NW10      29.61R
INDIANAPOLIS   RAIN      40  39  97 NW12      29.56R FOG
-EAGLE CREEK   LGT RAIN  40  39  97 N13       29.56R FOG
KOKOMO *+      CLOUDY    41  39  93 NW14      29.57R
MARION +       RAIN      40  40  99 NW8       29.55R
MT COMFORT *+  CLOUDY    41 N/A N/A N10       29.54S
SHELBYVILLE    LGT RAIN  43  41  93 N7        29.51F FOG
ZIONSVILLE +   DRIZZLE   41  38  90 NW14      29.57R

$$

INZ033-034-041-042-049-050-058-059-241600-
EAST CENTRAL INDIANA

CITY           SKY/WX    TMP DP  RH WIND       PRES   REMARKS
MUNCIE         LGT RAIN  42  40  92 N7        29.52F FOG

$$

INZ060-061-067>069-081>083-085>088-241600-
SOUTHWEST INDIANA

CITY           SKY/WX    TMP DP  RH WIND       PRES   REMARKS
EVANSVILLE     LGT RAIN  45  41  86 NW8G18    29.62S FOG
HUNTINGBURG *+ CLOUDY    43  39  87 NW14G21   29.59R
WASHINGTON +   RAIN      42  39  88 NW13      29.59R

$$

INZ062-063-066-070>080-084-089>092-241600-
SOUTH CENTRAL AND SOUTHEAST INDIANA

CITY           SKY/WX    TMP DP  RH WIND       PRES   REMARKS
BLOOMINGTON    LGT RAIN  42  41  96 N13       29.55S FOG

$$



USA.gov is the U.S. government's official web portal to all federal, state and local government web resources and services.